[[{"header":{"parameterUnit":"m.s-1","parameterCategory":1,"la1":30.2991,"la2":30.254,"lo1":-89.0895,"lo2":-89.0444,"dy":0.0017,"dx":0.0017,"nx":28,"ny":28,"refTime":"2024-12-07T09:00:00:Z","depth":0,"parameterNumber":2,"parameterNumberName":"U-component_of_WINDS"},"data":[0,0,0,0,0,0,0,0,0,0,0,0,0,0,0,0,0,0,0,0,0,0,0,0,0,0,0,0,0,0,0,0,0,0,0,0,0,0,0,0,0,0,0,0,0,0,0,0,0,0,0,0,0,0,0,0,0,0,0.7613,0.7613,0,0.7653,0.7653,0.7653,0.7661,0.7661,0.766,0.766,0.7697,0.7699,0.77,0,0,0,0,0,0,0,0,0,0,0,0,0,0.7539,0.754,0.7613,0.7613,0.7614,0.7653,0.7653,0.7654,0.7661,0.7661,0.766,0.766,0.7697,0.7698,0.77,0,0,0,0,0,0,0,0,0,0,0,0,0,0.7574,0.7541,0.7613,0.7622,0.7623,0.7652,0.7653,0.7654,0.7661,0.766,0.766,0.766,0.7696,0.7698,0.77,0.7722,0,0,0.7706,0.7707,0,0,0,0,0,0,0,0,0.7572,0.7577,0.762,0.7621,0.7623,0.7651,0.7641,0.7676,0.7661,0.7647,0.766,0.7659,0.7682,0.7685,0.7694,0.7723,0.7725,0.7706,0.7707,0.7708,0.7709,0,0,0,0,0,0,0,0.7569,0.7575,0.7628,0.7621,0.7622,0.7623,0.7627,0.7648,0.7666,0.7648,0.7648,0.7653,0.7683,0.7692,0.7695,0.7725,0.7706,0.7708,0.7709,0.771,0.7774,0.7774,0,0,0,0,0,0,0.7566,0.7573,0.7627,0.763,0.7596,0.7625,0.763,0.7643,0.7666,0.7669,0.7654,0.7653,0.7689,0.7692,0.7696,0.7722,0.7708,0.771,0.7711,0.7773,0.7774,0.7775,0,0,0,0,0,0,0.7564,0.7571,0.7625,0.7601,0.7608,0.7627,0.7641,0.7644,0.7653,0.7671,0.7674,0.766,0.7688,0.7693,0.7715,0.7724,0.7711,0.7713,0.7773,0.7774,0.7774,0.7775,0,0,0,0,0,0,0.7562,0.757,0.7579,0.7602,0.761,0.7645,0.7641,0.7645,0.7656,0.7657,0.7677,0.768,0.7688,0.7712,0.7717,0.7726,0.7714,0.7772,0.7773,0.7774,0.7775,0.7776,0.7777,0,0,0,0,0,0.7559,0.7577,0.758,0.7586,0.7622,0.7646,0.765,0.7661,0.7657,0.7666,0.7677,0.7679,0.7722,0.7715,0.772,0.773,0.7772,0.7773,0.7774,0.7774,0.7776,0.7777,0,0,0,0,0,0,0.7554,0.758,0.7583,0.7609,0.7625,0.7647,0.7659,0.7662,0.7679,0.7678,0.7689,0.7694,0.7715,0.7724,0.7716,0.7751,0.7746,0.7749,0.7744,0.7746,0.7748,0.7745,0.7716,0,0,0,0,0,0.7556,0.7575,0.7596,0.7617,0.7625,0.764,0.7651,0.7658,0.7674,0.7681,0.7694,0.7709,0.7726,0.7736,0.7753,0.7776,0.778,0.7785,0.7786,0.7788,0.7789,0.7802,0.7804,0.7779,0.7779,0.7779,0,0,0.756,0.7577,0.7588,0.7616,0.7629,0.7647,0.7646,0.7665,0.7678,0.7683,0.7705,0.7715,0.7733,0.7755,0.7766,0.7764,0.7797,0.7789,0.779,0.7791,0.7803,0.7806,0.7808,0.7779,0.7779,0.7779,0,0,0.7577,0.7592,0.7611,0.7624,0.7645,0.7655,0.7659,0.768,0.7687,0.771,0.7714,0.7729,0.7758,0.777,0.778,0.7801,0.7803,0.7806,0.7813,0.7825,0.7827,0.7829,0.7836,0.7838,0.7807,0.7807,0.7807,0,0.7579,0.7607,0.7619,0.7638,0.765,0.7657,0.7676,0.7688,0.7712,0.7719,0.7717,0.7753,0.7765,0.7791,0.7796,0.7804,0.7808,0.7803,0.7826,0.7828,0.7829,0.7836,0.7839,0.7808,0.7808,0.7808,0.7808,0,0.7609,0.7628,0.7641,0.7665,0.7678,0.7697,0.771,0.7722,0.7727,0.7737,0.776,0.7774,0.7794,0.78,0.7805,0.7826,0.7824,0.7824,0.7819,0.7832,0.7839,0.7841,0.7808,0.7808,0.7808,0.7808,0,0,0.7623,0.7655,0.7659,0.767,0.7693,0.7708,0.7726,0.7746,0.7756,0.7772,0.7787,0.7811,0.781,0.7822,0.7828,0.7838,0.7853,0.7836,0.7837,0.7839,0.7877,0.7877,0.788,0.7855,0.7856,0.7856,0.7875,0,0.7643,0.7677,0.7688,0.7716,0.7734,0.774,0.7756,0.7771,0.7781,0.7796,0.7806,0.7823,0.7821,0.7828,0.7839,0.7849,0.7861,0.7848,0.7868,0.7869,0.7864,0.7884,0.7885,0.7902,0.7878,0.7879,0.7879,0,0.767,0.7688,0.7718,0.7739,0.7746,0.7761,0.778,0.7795,0.7811,0.7817,0.783,0.7835,0.7853,0.7848,0.7872,0.7863,0.7872,0.7878,0.7879,0.7881,0.7875,0.7887,0.7908,0.7911,0.7883,0.7883,0.7883,0,0.7677,0.7709,0.7731,0.774,0.7765,0.7775,0.7785,0.7802,0.7813,0.7829,0.7836,0.7854,0.7863,0.7876,0.7886,0.7881,0.791,0.7905,0.7915,0.7914,0.792,0.792,0.7944,0.7926,0.7926,0.7926,0.7926,0,0.7698,0.7716,0.7735,0.7748,0.7768,0.778,0.7799,0.781,0.7825,0.7839,0.7846,0.7859,0.7871,0.7886,0.7893,0.7912,0.7916,0.7921,0.7923,0.7921,0.792,0.7927,0.7926,0.7927,0.7926,0.7926,0.7926,0,0.7709,0.7723,0.7748,0.7769,0.7775,0.7789,0.7807,0.7819,0.7829,0.7848,0.7853,0.7868,0.7885,0.7896,0.7918,0.7923,0.7944,0.7946,0.7939,0.794,0.7949,0.7948,0.7978,0.7982,0.7962,0.7962,0.7962,0,0.7722,0.7736,0.7759,0.777,0.7781,0.7799,0.7811,0.7822,0.7834,0.7854,0.7864,0.7883,0.7898,0.7926,0.7938,0.7955,0.7956,0.7966,0.7959,0.7956,0.7956,0.7955,0.7957,0.7967,0.7967,0.7967,0.7967,0,0.7741,0.7748,0.7765,0.7785,0.7799,0.7815,0.7831,0.7839,0.7853,0.7866,0.7885,0.7897,0.792,0.7938,0.7956,0.7965,0.7968,0.7969,0.7972,0.797,0.7966,0.7968,0.7942,0.7968,0.7968,0.7968,0.7968,0.7968,0.7754,0.7767,0.7785,0.7804,0.7818,0.7832,0.7845,0.7857,0.7874,0.7894,0.79,0.7919,0.7935,0.7959,0.7969,0.7984,0.7982,0.7987,0.7988,0.7989,0.7989,0.7964,0.7987,0.7987,0.7987,0.7987,0.7987,0,0.7774,0.7786,0.7804,0.7826,0.7841,0.7844,0.7861,0.7873,0.7891,0.7906,0.7921,0.7942,0.7959,0.7973,0.7991,0.8,0.8002,0.8004,0.8003,0.8005,0.799,0.7985,0.8002,0.8002,0.8002,0.8002,0.8002,0.8002,0.7786,0.7808,0.7816,0.7845,0.7856,0.7877,0.7886,0.7899,0.7911,0.7935,0.795,0.796,0.7974,0.7992,0.8008,0.8011,0.8017,0.802,0.8023,0.8008,0.8006,0.8005,0.8001,0.8021,0.8021,0.8038,0.8038,0.8038]},{"header":{"parameterUnit":"m.s-1","parameterCategory":1,"la1":30.2991,"la2":30.254,"lo1":-89.0895,"lo2":-89.0444,"dy":0.0017,"dx":0.0017,"nx":28,"ny":28,"refTime":"2024-12-07T09:00:00:Z","depth":0,"parameterNumber":3,"parameterNumberName":"V-component_of_WINDS"},"data":[0,0,0,0,0,0,0,0,0,0,0,0,0,0,0,0,0,0,0,0,0,0,0,0,0,0,0,0,0,0,0,0,0,0,0,0,0,0,0,0,0,0,0,0,0,0,0,0,0,0,0,0,0,0,0,0,0,0,4.9788,4.9788,0,4.9757,4.9756,4.9756,4.9682,4.9681,4.9679,4.9678,4.9645,4.9646,4.9646,0,0,0,0,0,0,0,0,0,0,0,0,0,4.9785,4.9785,4.9788,4.9788,4.9787,4.9757,4.9756,4.9756,4.9682,4.968,4.9679,4.9677,4.9645,4.9646,4.9646,0,0,0,0,0,0,0,0,0,0,0,0,0,4.9773,4.9785,4.9788,4.9747,4.9743,4.9757,4.9756,4.9756,4.9683,4.968,4.9678,4.9676,4.9645,4.9645,4.9646,4.9698,0,0,4.9649,4.9649,0,0,0,0,0,0,0,0,4.9774,4.9773,4.9753,4.975,4.9745,4.9721,4.9743,4.9736,4.9683,4.9706,4.9677,4.9675,4.9672,4.9671,4.967,4.9696,4.9695,4.9649,4.9649,4.965,4.965,0,0,0,0,0,0,0,4.9775,4.9774,4.9775,4.9753,4.9748,4.973,4.9726,4.9741,4.9702,4.9703,4.9698,4.9695,4.9669,4.9669,4.9668,4.9694,4.9649,4.965,4.965,4.9651,4.9763,4.9765,0,0,0,0,0,0,4.9781,4.9775,4.9776,4.9775,4.9754,4.9732,4.9727,4.9731,4.9702,4.9695,4.9697,4.9692,4.9669,4.9667,4.9667,4.9727,4.965,4.9651,4.9651,4.9761,4.9764,4.9766,0,0,0,0,0,0,4.9782,4.9782,4.9778,4.9773,4.9772,4.9735,4.9739,4.9732,4.9731,4.9697,4.969,4.9704,4.9667,4.9666,4.9691,4.9725,4.9651,4.9652,4.9758,4.9762,4.9765,4.9846,0,0,0,0,0,0,4.9782,4.9783,4.9802,4.9774,4.9772,4.9802,4.9741,4.9733,4.9733,4.9726,4.9702,4.9695,4.9665,4.969,4.9692,4.9724,4.9652,4.9755,4.9759,4.9764,4.984,4.9852,4.9862,0,0,0,0,0,4.9782,4.9825,4.9803,4.9804,4.9795,4.9804,4.9803,4.9767,4.9736,4.9755,4.9733,4.9696,4.972,4.9693,4.9695,4.9728,4.9752,4.9758,4.9763,4.9835,4.985,4.9862,0,0,0,0,0,0,4.9856,4.9821,4.9796,4.9831,4.9822,4.9792,4.9815,4.9783,4.9782,4.9776,4.9731,4.9726,4.9758,4.9745,4.9716,4.9777,4.973,4.9737,4.9785,4.9798,4.9809,4.9812,4.9653,0,0,0,0,0,4.9877,4.9888,4.9856,4.989,4.9887,4.9852,4.9855,4.9828,4.9816,4.9812,4.9792,4.9782,4.9787,4.9791,4.9794,4.9837,4.9832,4.9861,4.9872,4.9881,4.9888,4.9911,4.9924,4.9785,4.9785,4.9785,0,0,4.992,4.9901,4.9911,4.9905,4.9894,4.9907,4.9849,4.9864,4.9873,4.9814,4.9837,4.9822,4.9808,4.9843,4.9857,4.9833,4.9925,4.9888,4.9896,4.9897,4.9919,4.9932,4.9944,4.9788,4.9788,4.9787,0,0,5.0004,4.9991,5.0019,5.001,4.9995,4.9972,4.9979,4.9954,4.9942,4.9965,4.9921,4.9931,4.9941,4.9933,4.9931,5.0014,4.9981,5.0016,5.0074,5.0098,5.0109,5.0119,5.0151,5.0162,5.0023,5.0023,5.0023,0,5.0059,5.0076,5.0037,5.0056,5.0056,5.0003,5.0032,5.0025,5.0011,5.0013,4.9985,4.9998,4.9985,5.0018,5.0039,5.0038,5.0045,5.002,5.0111,5.012,5.0128,5.0158,5.017,5.0027,5.0027,5.0026,5.0026,0,5.0145,5.0158,5.0183,5.0173,5.0174,5.0198,5.0164,5.017,5.0144,5.0124,5.0149,5.0131,5.013,5.0136,5.011,5.0166,5.0152,5.0119,5.0071,5.0147,5.0174,5.0185,5.0034,5.0032,5.0031,5.003,0,0,5.0276,5.0245,5.0254,5.025,5.023,5.024,5.0261,5.0261,5.0269,5.0262,5.028,5.029,5.026,5.0257,5.023,5.025,5.032,5.0214,5.0213,5.0236,5.0384,5.0411,5.0424,5.0298,5.03,5.0301,5.0386,0,5.0356,5.0393,5.0359,5.0402,5.0414,5.0365,5.0384,5.0375,5.0357,5.0365,5.0345,5.0354,5.0312,5.031,5.0328,5.0308,5.035,5.0301,5.0315,5.0316,5.0322,5.0438,5.0466,5.0547,5.0396,5.0398,5.0399,0,5.0455,5.0454,5.0499,5.0478,5.0482,5.05,5.0498,5.0506,5.0495,5.048,5.0479,5.0446,5.0467,5.042,5.0449,5.0417,5.042,5.0411,5.0414,5.0415,5.0363,5.0444,5.0571,5.0585,5.0415,5.0414,5.0413,0,5.0549,5.0558,5.0586,5.0583,5.0559,5.0574,5.0564,5.0551,5.0553,5.0552,5.0554,5.0554,5.0555,5.0557,5.0526,5.0494,5.0559,5.0509,5.0549,5.055,5.0566,5.0566,5.0698,5.0566,5.0566,5.0565,5.0565,0,5.0643,5.0673,5.0628,5.0646,5.0678,5.0639,5.0672,5.0658,5.0646,5.0661,5.0617,5.0632,5.0589,5.0599,5.0575,5.0604,5.0604,5.0594,5.0587,5.0599,5.06,5.0602,5.0596,5.0569,5.0568,5.0567,5.0567,0,5.0753,5.0724,5.0752,5.0727,5.0722,5.0747,5.0726,5.0742,5.0722,5.0741,5.0743,5.0711,5.0721,5.069,5.0694,5.0678,5.0721,5.0704,5.0726,5.0721,5.0764,5.0761,5.0902,5.092,5.0775,5.0777,5.0778,0,5.0816,5.0838,5.0816,5.0823,5.0817,5.0828,5.0831,5.0794,5.0799,5.0789,5.0807,5.0813,5.0817,5.0835,5.0813,5.0817,5.0801,5.085,5.0801,5.0813,5.0804,5.0804,5.0807,5.0861,5.0862,5.0864,5.0865,0,5.0932,5.0917,5.0923,5.0925,5.0931,5.093,5.0927,5.0935,5.0895,5.0903,5.0913,5.0916,5.0922,5.093,5.0929,5.092,5.0887,5.0881,5.089,5.0903,5.0915,5.0912,5.0755,5.0878,5.0876,5.0876,5.0875,5.0874,5.1021,5.104,5.1028,5.1037,5.1031,5.1029,5.1043,5.1025,5.1033,5.1036,5.1013,5.1029,5.1018,5.1014,5.1008,5.102,5.0997,5.1011,5.1015,5.1019,5.1028,5.0912,5.102,5.1019,5.1019,5.1018,5.1018,0,5.1137,5.1127,5.1136,5.1134,5.1141,5.1109,5.1104,5.1113,5.1127,5.112,5.1125,5.1138,5.1146,5.1124,5.1129,5.1143,5.1128,5.1146,5.1145,5.1144,5.1047,5.1039,5.1158,5.1158,5.1158,5.1158,5.1158,5.1158,5.1198,5.1228,5.1212,5.1239,5.1228,5.1244,5.1244,5.1243,5.1237,5.1254,5.1261,5.1247,5.1234,5.1238,5.1244,5.1238,5.1243,5.1266,5.1255,5.1164,5.1151,5.1138,5.113,5.1267,5.1267,5.1351,5.1352,5.1353]}]]